User: anonymous   Login
Location: Mentone
(34.5413°N, 85.5351°W)
Time: 14:46:43
(UTC-05:00)
Language:

AO-Echo - Orbit

View from above orbital plane
View from above orbital plane
View from above satellite
View from above satellite

Ground track
Ground track

The orbit data is extracted from the following two-line orbital elements,

1 28375U 04025K   15187.81289333  .00000126  00000-0  50463-4 0  9996
2 28375 098.2929 127.6943 0081422 270.4015 088.7845 14.41676173579319
Epoch (UTC): 06 July 2015 19:30:33
Eccentricity: 0.0081422
inclination: 98.2929°
perigee height: 695 km
apogee height: 811 km
right ascension of ascending node: 127.6943°
argument of perigee: 270.4015°
revolutions per day: 14.41676173
mean anomaly at epoch: 88.7845°
orbit number at epoch: 57931

The dashed part of the orbit path shows where the satellite is in the earth's shadow,  

DLR